GFSSW_925_spd_132.txt.gz
Wind_Speed
16 16 16 16 14 17 18 18 19 19 18 18 18 17 18 20 23 25 13 19 12 18 13 9 4 18 12 4 3 4 3 7 7 6 2 12 6 6 5 3 6 7 7 9 30
17 17 17 17 17 18 17 18 19 20 20 19 18 17 17 17 22 23 35 34 34 16 7 11 3 10 4 6 4 5 6 8 5 6 2 6 4 6 5 1 4 11 15 14 17
21 19 19 19 19 19 20 21 21 18 19 19 19 18 16 14 7 10 8 10 26 22 16 7 7 2 5 3 6 5 8 3 3 9 9 6 8 4 3 2 2 6 9 10 10
23 23 23 22 22 22 22 22 21 20 18 19 19 18 16 5 6 4 6 23 12 21 16 8 5 4 7 9 5 5 4 5 3 5 4 5 4 5 4 3 6 11 10 8 10
25 25 24 24 25 24 24 22 20 20 20 18 20 17 11 9 13 19 15 25 9 23 21 8 5 6 6 6 4 8 4 2 7 12 6 5 4 3 5 1 4 9 12 12 8
26 26 27 28 27 26 26 25 23 21 21 21 19 18 11 24 29 36 34 20 11 25 19 12 7 9 3 7 19 5 13 10 10 12 5 8 5 5 6 6 6 6 10 12 12
28 28 29 28 28 29 29 28 28 28 25 22 20 20 16 22 21 16 14 14 11 17 10 24 25 4 8 3 7 14 5 8 16 11 7 5 9 6 2 6 8 8 6 10 12
27 28 27 27 27 27 27 28 29 30 26 25 20 20 15 15 37 44 46 38 32 26 26 21 24 6 4 5 6 11 4 14 11 10 6 9 20 6 4 5 10 5 3 5 8
26 27 28 27 27 27 29 30 34 33 31 27 19 13 14 17 23 43 34 21 14 24 28 24 11 6 3 4 4 5 12 6 5 8 4 10 13 5 5 2 9 7 5 5 3
29 29 30 29 28 29 29 31 37 32 14 11 13 5 9 9 12 12 19 37 13 11 14 17 6 6 6 6 10 4 5 3 6 5 7 6 4 4 4 3 7 9 8 8 6
30 31 30 30 29 29 29 15 6 2 5 8 10 13 19 8 15 12 11 19 12 6 12 19 13 17 17 10 4 2 6 8 5 8 6 8 6 7 5 7 6 9 8 7 7
31 30 30 31 30 31 27 3 8 6 11 18 22 24 38 29 17 23 14 11 13 14 18 13 21 13 12 9 12 12 6 5 4 6 12 7 10 7 7 6 6 9 8 8 7
34 34 31 32 32 24 7 12 15 18 7 16 22 21 20 22 22 28 13 11 19 17 20 16 13 16 16 15 16 16 13 4 4 5 1 2 6 2 6 6 11 13 13 7 11
37 37 35 34 18 10 17 19 11 13 4 8 4 7 3 6 15 19 25 11 11 21 16 13 9 23 18 21 16 16 8 8 4 5 4 2 7 6 6 17 18 16 15 12 11
40 39 36 26 18 10 20 22 21 1 5 4 4 4 11 14 5 12 25 12 21 15 13 12 23 20 23 17 16 9 8 8 7 5 4 5 1 7 4 17 21 20 21 16 10
44 42 37 22 9 21 21 15 11 2 7 4 1 10 17 14 22 5 12 11 10 14 13 11 18 16 17 16 18 6 6 4 2 5 5 6 4 16 13 24 18 9 14 12 10
47 43 18 8 4 3 8 1 1 3 6 2 5 12 19 6 19 20 18 17 9 16 16 20 16 20 13 14 9 14 7 2 1 2 12 8 6 20 9 19 22 17 13 12 9
46 24 10 7 13 9 1 3 5 5 6 14 15 8 6 8 8 19 15 17 17 5 12 16 13 18 17 8 12 13 10 5 5 5 6 6 12 8 12 23 14 14 11 9 9
39 18 8 5 6 11 3 3 4 4 7 11 17 2 5 5 8 14 13 19 17 16 6 13 11 10 16 9 15 7 7 8 5 0 4 5 9 15 17 14 6 10 10 9 8
25 9 7 4 4 9 2 5 5 7 17 18 10 2 4 8 7 7 12 8 22 16 7 5 6 9 17 14 12 9 8 4 3 6 5 2 5 2 16 11 8 10 10 12 15
9 3 2 5 2 1 3 5 11 14 14 3 3 2 4 3 3 4 7 3 21 19 14 1 3 7 16 14 14 5 6 5 6 5 5 1 6 4 13 25 15 10 15 15 13
6 4 6 7 2 0 3 5 7 10 6 11 5 8 5 3 2 2 4 5 15 21 15 3 3 0 8 7 16 10 9 7 5 3 2 4 6 14 22 6 15 17 20 17 14
5 3 4 5 6 5 6 8 6 9 8 3 5 6 3 4 3 7 8 14 10 15 11 5 1 2 4 4 4 7 6 7 6 4 6 5 3 14 22 9 9 21 17 14 15
3 4 4 3 3 8 7 7 12 13 6 10 6 4 3 3 8 4 4 2 9 14 7 10 3 5 5 5 4 6 6 8 7 4 7 5 6 1 18 8 11 15 16 16 17
4 3 1 6 9 14 9 4 9 9 8 12 2 10 4 2 1 2 4 6 7 16 5 6 2 3 8 8 6 7 5 6 6 10 6 10 11 16 10 8 7 14 18 18 18
3 3 3 8 11 14 8 6 8 10 3 7 13 10 9 4 4 4 5 3 5 4 5 4 1 4 7 11 9 7 14 9 13 10 8 18 12 20 10 5 7 14 13 13 15
6 7 3 6 9 10 10 11 7 14 6 7 8 2 6 4 6 3 3 5 4 3 4 4 4 4 3 9 3 7 9 8 7 8 22 12 14 15 10 12 6 9 7 7 11

GFSSW_925_spd_138.txt.gz
Wind_Speed
19 19 21 21 20 20 20 20 20 20 19 17 16 17 17 17 20 22 17 15 10 6 10 9 1 6 7 2 4 4 3 5 8 8 3 3 3 1 2 3 4 8 8 5 18
20 19 20 21 21 22 21 21 21 20 18 17 16 15 17 17 20 22 31 23 20 17 9 12 3 7 4 6 4 5 5 10 6 5 5 3 1 2 5 8 4 7 11 15 19
21 21 21 22 23 23 23 23 23 21 19 17 16 14 14 15 7 7 22 6 11 20 18 8 8 5 6 4 5 5 6 6 5 6 5 2 3 0 2 1 2 5 7 8 17
23 23 23 22 23 23 23 23 23 23 21 19 15 13 11 4 6 16 6 25 18 18 22 8 5 8 6 7 5 4 6 6 7 4 3 3 3 2 4 5 5 7 9 9 12
24 24 24 24 23 23 23 24 23 22 22 22 19 15 8 8 11 10 14 22 11 14 16 6 8 7 8 8 5 6 4 7 5 7 4 4 2 2 1 4 7 8 7 7 9
26 26 26 26 25 25 25 25 25 24 22 21 20 16 8 20 26 30 35 21 8 13 14 6 8 6 6 5 10 7 8 5 7 6 1 4 3 4 3 3 7 8 8 6 7
29 29 28 28 27 26 26 25 26 25 23 21 21 19 10 17 29 15 11 7 2 8 4 15 2 4 7 5 6 5 5 6 12 5 4 7 9 7 6 3 7 6 7 9 9
30 30 28 27 27 27 27 27 28 27 25 22 18 19 15 20 31 34 36 30 20 12 5 12 6 1 3 1 4 7 1 5 5 11 6 8 11 6 8 10 8 8 6 6 9
30 31 30 29 28 28 29 31 32 34 30 21 15 10 12 7 15 27 30 18 20 24 14 12 3 5 3 7 3 4 5 5 2 10 9 11 3 10 9 9 8 8 8 7 6
31 32 33 31 31 31 31 31 36 20 3 7 10 4 7 5 9 7 9 25 6 9 5 8 4 5 3 8 15 5 7 3 6 6 11 6 4 1 3 8 11 9 8 8 8
33 34 34 35 34 32 30 14 5 2 3 6 8 7 3 10 10 2 6 17 11 7 11 13 5 15 19 7 4 6 9 8 6 5 7 9 6 9 9 6 8 8 8 8 9
35 36 36 37 34 28 20 2 5 3 10 15 18 21 22 17 9 9 7 7 10 11 10 8 21 11 9 9 9 4 8 7 3 5 3 5 6 9 9 6 9 12 10 10 5
40 38 36 36 33 12 4 10 9 10 5 6 13 6 8 17 14 12 16 10 8 9 21 16 11 13 11 15 13 3 6 6 6 4 1 3 3 4 5 5 5 6 7 5 9
41 39 37 30 10 4 5 3 2 3 3 5 5 6 9 6 7 21 10 9 9 19 21 13 13 22 18 19 14 11 8 4 8 5 4 2 4 4 6 8 7 9 8 10 10
41 41 34 19 8 3 3 3 4 2 3 4 5 6 6 6 3 7 24 11 13 11 14 13 20 22 22 16 18 5 11 5 3 5 4 1 2 6 1 4 8 11 13 12 15
43 41 25 5 4 8 5 8 1 1 5 2 6 6 4 7 6 3 11 7 6 6 17 13 16 15 11 14 15 12 9 5 5 3 1 5 5 5 3 7 4 6 11 14 13
47 31 8 4 2 4 2 2 2 3 6 3 4 5 13 12 13 18 17 16 8 11 21 17 14 8 14 19 13 6 15 3 2 1 5 6 4 8 6 7 7 9 12 11 8
41 13 5 8 8 6 2 1 5 7 7 11 11 20 10 3 9 12 21 12 15 7 14 16 11 15 19 19 12 11 7 5 7 5 5 6 4 5 4 5 7 11 14 8 9
33 8 4 6 7 4 1 2 4 3 6 7 14 3 6 5 6 8 7 14 11 14 8 9 4 12 19 9 13 10 8 6 7 2 5 4 5 5 5 6 9 9 1 7 5
19 10 5 8 3 4 1 7 5 3 7 5 3 5 7 7 4 2 6 12 8 15 6 2 6 15 13 10 3 13 9 2 3 4 4 1 2 4 8 12 13 8 5 6 12
7 4 6 9 1 2 3 5 10 11 10 4 2 3 4 4 3 2 10 9 14 9 1 6 5 12 11 6 9 9 9 4 6 3 5 4 4 5 6 10 11 3 7 10 13
7 3 12 15 3 2 4 14 12 11 3 2 2 3 1 4 2 4 4 10 16 3 3 1 4 11 11 3 10 6 8 6 5 1 3 4 4 2 6 8 3 9 9 8 14
6 3 5 8 5 8 7 9 7 13 14 2 2 3 1 2 0 3 6 7 21 7 5 6 0 5 5 4 3 6 5 6 6 3 5 5 4 2 6 7 7 13 13 11 12
3 5 4 4 2 9 8 6 13 15 8 8 7 4 2 1 0 3 3 5 12 16 14 4 3 6 7 8 7 8 6 5 7 4 5 5 5 0 4 6 8 10 11 11 9
4 2 2 7 9 15 10 7 15 11 4 12 5 10 3 2 2 4 4 1 21 10 4 3 4 4 3 11 7 5 9 8 5 7 7 6 9 5 1 3 6 11 9 18 12
4 3 3 4 10 13 8 13 13 20 7 12 15 11 9 4 5 2 5 4 3 5 3 3 2 1 8 8 11 6 3 12 7 7 7 8 3 3 1 7 12 13 13 17 16
5 7 3 5 9 9 9 14 17 19 7 11 17 5 6 3 4 3 4 3 3 4 2 3 4 3 3 3 7 6 3 1 4 3 9 6 6 6 8 8 11 16 17 20 15

GFSSW_925_spd_141.txt.gz
Wind_Speed
21 20 20 20 19 19 19 19 20 19 18 17 16 15 14 16 19 18 21 17 10 10 12 9 4 9 6 4 4 3 8 15 19 18 11 6 9 3 1 1 4 4 3 6 13
21 21 21 21 21 21 21 22 21 20 21 18 15 14 13 15 18 23 25 19 18 17 11 9 9 14 8 8 6 11 14 16 5 7 13 8 3 1 2 2 3 5 7 10 12
23 23 22 22 22 21 20 20 20 20 20 20 17 14 11 12 11 7 15 7 10 15 18 7 7 11 13 7 9 9 17 10 8 9 6 8 9 2 1 2 2 5 9 10 12
25 24 23 23 23 22 22 22 21 21 20 19 18 16 10 3 7 12 10 15 12 14 22 10 12 10 12 14 10 10 13 12 10 10 10 5 3 8 6 3 3 10 11 10 12
26 25 25 24 23 24 23 23 23 21 20 19 18 16 11 8 14 14 17 21 17 3 20 15 16 13 16 15 13 17 7 15 13 9 8 5 10 5 4 7 8 13 10 10 10
27 26 26 26 25 25 24 25 24 23 21 20 18 17 12 18 26 26 28 19 7 9 14 13 9 12 12 10 22 15 15 10 16 10 7 11 6 4 7 7 8 14 13 11 11
29 28 28 27 26 26 25 25 26 23 22 21 18 15 12 22 12 7 11 7 3 4 8 17 4 12 9 8 7 7 15 18 10 18 12 6 12 11 6 10 10 10 11 11 12
29 30 30 29 28 28 28 28 28 26 26 23 17 14 12 12 21 31 28 28 18 12 3 7 6 5 5 8 9 13 8 12 18 12 8 16 20 15 12 10 12 11 10 11 13
31 32 33 32 31 31 32 31 29 29 28 21 12 7 11 6 10 22 22 24 15 21 12 6 5 7 5 13 9 18 15 17 8 22 7 16 9 13 16 16 13 11 10 10 11
32 33 34 34 33 33 31 28 28 10 6 9 6 8 8 7 7 4 6 21 10 13 10 7 7 10 12 17 21 17 20 16 14 9 24 17 9 8 15 19 15 12 11 9 10
34 34 34 34 32 29 28 9 3 1 3 6 8 5 4 11 4 3 8 21 9 16 14 14 11 22 24 17 6 13 18 13 17 9 17 18 15 10 13 14 16 12 11 11 12
36 34 34 33 30 25 6 1 3 2 9 14 20 19 25 10 3 11 19 6 10 16 17 10 21 17 14 16 9 13 17 15 9 13 10 16 18 17 14 13 14 16 15 15 14
39 38 35 31 25 5 3 5 4 4 5 8 11 12 16 16 16 17 12 7 11 17 23 21 11 16 18 19 16 7 16 14 13 15 4 12 11 18 14 11 10 15 14 14 14
42 38 35 26 6 3 4 3 3 2 3 4 5 5 8 8 7 23 23 13 7 20 21 16 12 22 20 22 20 9 7 13 13 17 7 8 6 9 14 14 14 14 16 16 16
41 41 32 12 5 3 3 1 0 1 5 6 5 8 6 7 8 8 17 17 14 10 16 19 23 22 23 25 22 12 10 7 12 13 8 9 4 4 5 12 14 15 19 20 18
45 40 23 2 5 7 3 1 2 2 4 3 6 8 7 9 5 3 16 11 6 11 20 17 18 17 12 18 21 11 11 5 6 6 8 11 9 6 8 11 10 13 16 18 18
44 20 6 2 2 2 3 3 2 3 7 3 3 3 11 9 10 7 13 16 11 10 18 17 22 16 17 20 17 17 16 7 7 7 4 10 8 3 8 7 9 9 12 15 15
35 7 6 6 7 5 4 1 5 5 7 6 7 15 8 4 9 17 10 15 20 10 20 18 10 21 21 26 17 24 22 7 8 8 8 7 8 3 5 3 6 10 13 13 14
23 3 4 10 8 5 1 2 4 3 5 6 10 4 3 1 3 4 12 21 19 13 16 13 10 23 26 22 20 19 17 5 7 5 9 5 2 4 7 7 6 10 7 5 11
11 7 5 16 4 2 1 4 4 5 4 3 4 3 4 4 3 5 10 18 14 16 12 11 15 19 21 17 18 20 14 6 3 9 8 7 6 6 4 7 11 9 5 7 6
4 2 7 16 1 2 3 5 8 11 6 3 3 4 4 2 5 4 12 15 12 17 14 7 14 14 21 16 24 18 14 2 5 1 4 7 4 1 3 8 10 3 9 10 12
6 1 11 16 3 3 5 15 11 13 6 1 4 5 1 5 2 3 4 5 9 8 9 3 11 19 24 7 14 18 16 4 4 4 3 3 4 2 6 7 2 9 12 17 18
5 3 7 9 5 9 8 9 11 15 12 1 2 4 4 2 0 4 1 9 23 14 3 8 8 12 13 8 15 17 18 9 6 2 2 3 4 1 1 4 8 12 15 19 19
3 5 4 4 3 10 10 7 17 15 7 12 5 3 3 2 1 3 2 10 18 9 9 8 7 16 9 17 17 14 22 16 10 3 5 3 8 6 5 9 11 14 16 20 19
5 3 4 7 8 14 12 9 16 11 6 10 6 15 3 3 2 1 16 10 5 6 3 3 9 8 9 17 19 12 22 14 11 9 8 7 8 8 7 11 14 15 17 18 19
4 4 4 6 11 13 12 7 14 20 7 11 13 17 8 3 7 6 19 7 5 10 13 1 5 7 11 20 21 13 18 20 15 9 4 13 7 6 7 13 17 17 19 18 17
4 5 3 8 10 10 11 12 13 20 8 11 16 7 5 7 6 2 2 3 5 5 3 2 5 9 7 15 17 11 4 9 9 12 8 8 7 13 13 15 17 18 19 21 21

GFSSW_925_spd_144.txt.gz
Wind_Speed
20 20 19 19 18 18 19 20 20 19 18 18 18 16 16 15 17 20 22 16 8 15 14 13 11 17 16 16 16 15 15 20 27 24 17 13 14 12 2 8 2 3 4 8 13
21 22 22 21 20 19 19 19 19 20 20 18 18 17 15 15 20 25 27 20 18 18 14 12 12 17 16 19 14 17 18 25 18 15 17 12 15 16 11 9 7 7 9 9 12
22 22 22 21 21 21 21 20 19 19 18 18 19 18 15 13 21 10 4 7 14 12 18 15 14 17 22 17 22 23 22 20 15 8 11 13 15 7 14 11 8 8 10 12 13
22 22 21 21 21 21 19 20 20 19 19 18 16 16 16 9 7 7 14 14 3 7 18 20 16 20 22 24 21 17 25 16 14 14 18 14 14 17 12 10 4 3 9 10 11
23 23 22 22 22 22 21 20 21 20 18 17 16 14 11 8 19 9 14 14 12 11 22 22 21 20 23 24 20 24 16 19 12 14 17 15 15 15 18 11 6 7 9 10 9
25 25 24 25 24 24 24 23 23 21 18 16 14 12 13 23 17 20 24 21 15 10 9 21 15 22 13 19 25 17 22 17 18 20 16 17 16 14 13 9 11 10 10 9 10
27 27 28 27 27 27 26 25 25 24 20 17 14 11 14 23 7 4 7 12 7 7 10 15 18 18 15 19 20 9 24 15 21 19 16 13 16 21 16 14 13 13 10 9 8
28 30 31 30 28 28 29 29 27 24 22 20 16 15 12 10 22 32 30 18 12 4 6 9 18 15 20 9 17 24 18 23 21 22 18 17 21 18 16 15 15 14 11 10 9
32 33 32 29 29 29 30 30 28 22 19 17 13 10 13 6 16 19 24 27 22 17 10 10 13 17 17 17 16 22 20 26 22 22 15 21 15 22 19 17 17 14 12 10 11
34 34 34 32 30 29 29 27 14 2 7 10 3 5 10 11 4 6 7 17 20 16 10 7 10 15 19 19 25 26 24 24 21 21 23 21 15 5 17 20 19 16 14 12 11
35 35 35 32 32 27 22 12 3 6 7 10 8 12 3 9 3 4 2 14 17 20 14 14 17 26 31 29 21 17 24 19 21 13 24 19 21 10 17 22 21 18 15 14 13
37 38 35 34 29 23 7 6 4 6 11 15 18 18 19 7 3 9 14 7 17 23 23 7 22 21 21 23 24 13 20 18 19 15 22 22 19 16 14 20 23 21 19 16 13
40 38 38 31 23 6 8 6 2 2 6 6 9 15 18 20 19 13 13 11 10 23 26 16 13 20 21 22 23 17 20 19 21 16 13 16 18 19 16 18 18 19 17 18 18
42 41 35 25 9 6 6 2 1 1 4 6 4 3 8 8 8 21 27 15 9 20 27 22 11 22 21 24 23 18 18 19 20 21 12 18 11 21 22 20 17 18 19 18 20
44 41 25 9 9 5 3 2 2 3 4 4 5 4 9 12 4 4 23 19 18 13 19 17 18 22 24 25 24 16 12 16 19 19 10 20 9 20 21 24 24 23 21 21 20
47 32 12 4 4 6 2 3 2 4 1 2 4 7 9 13 2 3 15 21 17 11 19 22 16 17 19 22 23 15 14 14 13 13 11 17 15 12 16 21 19 21 23 22 22
40 12 6 6 9 4 4 1 4 3 2 2 5 4 10 6 9 8 15 22 13 13 16 20 20 17 17 24 24 20 20 10 13 10 9 17 13 6 13 14 13 17 18 20 19
31 5 7 8 9 2 2 2 4 1 6 8 6 13 12 6 8 16 5 19 20 16 17 20 19 23 17 27 30 30 24 14 20 15 10 13 9 10 15 8 8 7 7 9 15
17 2 7 13 8 1 1 4 6 3 4 6 13 4 1 5 4 12 13 19 17 14 10 22 19 22 24 26 23 26 21 2 11 13 11 11 12 6 11 8 7 6 5 11 14
12 5 7 15 5 0 2 5 4 5 4 3 3 3 4 2 5 12 16 16 14 19 21 15 18 27 23 25 20 27 23 8 6 13 14 13 16 14 16 10 3 3 7 10 12
5 4 9 14 3 3 5 5 9 14 6 5 3 3 3 4 6 4 11 17 19 18 18 7 8 22 25 18 23 16 18 9 2 4 10 11 11 17 11 6 5 11 12 16 16
7 3 12 15 7 3 8 17 12 13 11 3 3 5 3 5 2 4 13 6 15 15 16 11 11 20 33 22 22 20 22 14 8 6 5 11 9 7 4 6 13 13 16 16 18
8 4 6 16 5 7 11 10 17 16 13 2 4 5 3 3 1 5 4 6 16 13 6 7 11 18 22 15 20 22 23 13 3 11 12 10 10 6 8 14 16 16 16 19 23
5 5 3 4 3 13 12 10 19 15 9 11 4 6 5 3 3 4 5 7 16 11 11 14 19 24 19 32 29 26 25 16 13 8 10 15 18 11 12 14 16 16 16 21 22
6 5 5 8 10 16 14 14 20 11 5 9 6 18 11 1 1 3 7 12 5 9 8 3 18 8 7 25 25 22 23 22 13 8 14 15 16 13 13 15 17 17 14 20 21
5 5 5 6 14 17 15 16 19 18 7 11 10 19 9 7 8 17 14 7 3 5 2 1 13 6 17 21 22 20 19 23 15 9 2 12 15 12 15 16 18 16 19 20 20
7 7 2 10 13 13 14 20 21 21 7 12 15 9 9 11 9 7 7 5 6 4 4 3 9 9 14 20 21 18 21 23 19 12 9 11 13 14 17 17 18 19 18 20 19

GFSSW_925_spd_147.txt.gz
Wind_Speed
19 19 19 19 19 19 18 18 18 17 18 18 17 17 19 18 21 23 23 20 10 14 17 19 18 19 22 20 24 23 17 23 30 27 22 20 17 18 14 14 7 5 6 17 13
20 20 20 20 19 19 19 19 19 18 18 16 17 17 18 19 23 30 32 28 26 22 16 18 16 18 18 20 22 21 21 30 23 22 22 19 21 19 16 13 10 10 9 11 14
21 21 21 21 21 20 20 19 19 18 17 16 15 16 15 16 23 13 1 14 20 21 22 22 21 18 24 20 26 28 25 23 24 22 22 19 16 14 19 19 15 17 15 11 14
22 22 22 22 22 22 22 22 20 19 18 17 16 14 13 12 8 11 12 13 9 9 19 23 20 21 25 29 27 25 28 26 21 17 11 15 12 21 16 16 12 6 19 12 12
23 23 23 24 24 25 25 24 23 21 20 18 15 14 12 17 18 19 8 7 7 8 17 21 25 23 26 25 26 31 23 25 26 15 13 14 17 17 15 18 9 6 8 12 11
25 26 27 27 27 26 27 27 25 24 22 20 16 13 15 21 19 17 23 24 18 13 19 22 24 24 20 27 28 21 25 20 27 17 17 22 20 17 18 14 9 10 12 13 12
28 29 30 29 27 27 28 28 27 27 23 21 18 15 15 22 14 10 12 16 19 14 17 15 27 22 28 26 22 25 24 25 21 22 18 18 21 24 18 14 15 16 14 11 12
30 32 32 29 28 29 29 30 29 25 24 22 18 16 12 15 20 29 26 18 11 12 11 8 15 20 24 17 24 21 19 23 25 24 23 21 24 23 21 18 17 19 15 11 11
32 33 33 32 29 29 31 30 30 21 19 14 12 14 13 5 20 20 23 25 24 17 12 9 9 15 18 23 20 20 25 25 28 25 20 23 17 23 20 20 19 18 17 14 12
33 34 35 34 30 29 29 26 17 9 2 6 5 5 15 11 6 10 10 17 18 20 15 9 5 13 18 19 25 29 32 25 26 24 26 22 19 17 21 21 20 19 18 16 15
35 37 36 35 32 26 21 20 1 7 14 13 9 12 2 10 4 12 7 9 17 18 21 16 12 25 33 31 25 23 24 24 24 21 24 24 21 19 22 19 20 19 18 18 16
38 39 37 34 28 20 11 6 7 8 12 18 20 20 19 10 10 2 5 11 15 23 23 15 19 25 24 27 26 26 24 27 21 18 21 22 22 17 14 18 20 20 19 18 17
42 40 37 29 21 9 8 7 8 7 7 11 7 13 15 18 14 11 12 6 15 21 25 22 19 25 25 27 27 27 24 26 22 17 17 21 20 27 19 18 22 22 19 18 18
43 41 30 19 9 13 6 8 5 5 4 10 7 5 11 13 18 22 20 12 9 16 25 25 23 26 21 27 26 27 18 21 22 18 15 25 14 23 22 20 22 24 23 21 20
44 33 18 8 11 10 8 6 3 4 3 4 7 4 3 15 6 2 26 20 15 12 16 23 16 22 23 25 27 21 18 21 21 19 20 20 17 24 20 20 24 23 23 22 19
45 21 15 4 1 4 8 1 3 3 2 6 5 4 8 15 7 7 15 22 15 7 18 20 17 17 23 23 24 22 25 17 15 16 17 24 19 17 26 27 23 21 19 18 18
40 8 9 9 10 5 3 1 2 3 3 5 5 6 9 6 8 5 13 20 18 8 16 20 22 17 20 23 26 22 23 16 16 15 16 18 19 7 22 24 26 24 23 20 18
22 1 5 12 10 4 3 2 4 5 3 15 10 12 10 5 9 13 10 17 23 19 14 16 14 18 20 22 23 27 25 16 28 19 15 21 13 9 11 15 19 21 20 20 18
16 4 4 16 8 2 3 4 7 4 5 7 14 2 5 4 5 7 18 18 21 19 7 18 17 20 18 26 28 29 24 23 16 16 15 18 8 14 16 12 12 14 13 15 16
16 6 11 12 8 4 2 6 4 4 4 3 4 6 6 2 9 10 13 14 20 16 21 13 14 21 19 28 28 23 25 12 10 19 15 15 15 14 16 16 15 14 11 13 12
7 4 10 18 9 7 5 6 10 15 10 3 5 5 8 9 6 12 20 11 20 14 12 7 8 19 21 18 31 16 16 12 7 17 11 14 13 20 17 17 13 13 14 17 14
9 5 12 20 7 6 9 16 7 15 14 3 3 6 5 11 6 4 15 15 23 15 16 4 3 18 26 25 26 20 23 16 8 9 11 12 9 17 14 12 15 17 17 13 14
9 4 7 12 6 8 15 13 16 16 13 0 3 7 9 6 3 8 9 12 22 15 7 4 7 15 16 18 19 24 23 11 2 2 17 15 12 11 19 18 15 15 16 17 19
7 7 5 5 4 13 16 16 19 14 8 8 5 9 9 5 1 2 4 7 10 11 11 3 6 19 15 22 20 24 23 16 8 7 12 14 21 18 20 17 16 17 21 22 22
6 6 8 7 10 13 17 19 21 14 6 9 5 13 4 1 2 4 7 14 10 9 11 12 16 22 23 26 25 24 25 17 13 11 10 24 19 20 19 18 17 17 20 23 23
7 5 6 12 14 16 15 20 20 21 8 14 10 21 11 6 8 9 16 8 6 11 12 8 12 20 21 26 26 23 24 19 14 5 20 23 19 22 19 19 16 19 21 19 20
12 11 3 12 14 13 14 19 19 20 5 10 16 8 10 11 14 8 9 4 5 1 9 5 5 3 16 28 22 19 26 19 13 1 20 19 22 21 19 20 17 19 17 17 18